TimeCDT,TemperatureF,Dew PointF,Humidity,Sea Level PressureIn,VisibilityMPH,Wind Direction,Wind SpeedMPH,Gust SpeedMPH,PrecipitationIn,Events,Conditions,WindDirDegrees,DateUTC
12:14 AM,37.4,30.2,75,30.05,10.0,West,4.6,-,N/A,,Unknown,260,2013-10-23 05:14:00
12:33 AM,35.6,30.2,81,30.05,10.0,West,4.6,-,N/A,,Unknown,260,2013-10-23 05:33:00
12:54 AM,33.8,28.4,81,30.05,10.0,West,5.8,-,N/A,,Scattered Clouds,270,2013-10-23 05:54:00
1:14 AM,33.8,28.4,81,-9999,10.0,West,5.8,-,N/A,,Clear,280,2013-10-23 06:14:00
1:33 AM,33.8,28.4,81,30.05,10.0,West,5.8,-,N/A,,Scattered Clouds,280,2013-10-23 06:33:00
1:54 AM,33.8,28.4,81,30.05,10.0,West,5.8,-,N/A,,Mostly Cloudy,280,2013-10-23 06:54:00
2:14 AM,33.8,30.2,87,30.06,10.0,WNW,5.8,-,N/A,,Overcast,290,2013-10-23 07:14:00
2:33 AM,35.6,30.2,81,30.05,10.0,West,3.5,-,N/A,,Overcast,280,2013-10-23 07:33:00
2:54 AM,35.6,30.2,81,30.05,10.0,West,3.5,-,N/A,,Overcast,280,2013-10-23 07:54:00
3:14 AM,32.0,30.2,93,30.04,10.0,Calm,Calm,-,N/A,,Overcast,0,2013-10-23 08:14:00
3:33 AM,35.6,30.2,81,30.04,10.0,West,4.6,-,N/A,,Overcast,280,2013-10-23 08:33:00
3:54 AM,35.6,30.2,81,30.04,10.0,West,4.6,-,N/A,,Overcast,280,2013-10-23 08:54:00
4:14 AM,35.6,30.2,81,30.03,-9999.0,West,4.6,-,N/A,,Overcast,280,2013-10-23 09:14:00
4:34 AM,35.6,30.2,81,30.03,10.0,West,3.5,-,N/A,,Overcast,270,2013-10-23 09:34:00
4:53 AM,35.6,30.2,81,30.03,10.0,WNW,4.6,-,N/A,,Overcast,290,2013-10-23 09:53:00
5:14 AM,33.8,30.2,87,30.03,10.0,West,3.5,-,N/A,,Overcast,280,2013-10-23 10:14:00
5:34 AM,35.6,30.2,81,30.04,10.0,WNW,4.6,-,N/A,,Overcast,290,2013-10-23 10:34:00
5:53 AM,35.6,32.0,87,30.04,10.0,WNW,3.5,-,N/A,,Overcast,290,2013-10-23 10:53:00
6:13 AM,35.6,32.0,87,30.04,10.0,Calm,Calm,-,N/A,,Overcast,0,2013-10-23 11:13:00
6:34 AM,35.6,32.0,87,30.03,10.0,Calm,Calm,-,N/A,,Overcast,0,2013-10-23 11:34:00
6:53 AM,35.6,32.0,87,30.04,10.0,NW,3.5,-,N/A,,Overcast,310,2013-10-23 11:53:00
7:13 AM,35.6,32.0,87,30.04,10.0,WNW,3.5,-,N/A,,Overcast,300,2013-10-23 12:13:00
7:34 AM,35.6,32.0,87,30.04,10.0,Calm,Calm,-,N/A,,Overcast,0,2013-10-23 12:34:00
7:53 AM,35.6,32.0,87,30.05,10.0,NW,3.5,-,N/A,,Overcast,310,2013-10-23 12:53:00
8:14 AM,35.6,32.0,87,30.05,10.0,NNW,4.6,-,N/A,,Overcast,330,2013-10-23 13:14:00
8:34 AM,37.4,32.0,81,30.06,10.0,NNW,4.6,-,N/A,,Overcast,330,2013-10-23 13:34:00
8:53 AM,37.4,30.2,75,30.07,10.0,NNW,4.6,-,N/A,,Overcast,340,2013-10-23 13:53:00
9:14 AM,37.4,30.2,75,30.07,10.0,North,8.1,-,N/A,,Overcast,350,2013-10-23 14:14:00
9:33 AM,37.4,28.4,70,30.08,10.0,NNW,8.1,-,N/A,,Overcast,340,2013-10-23 14:33:00
9:53 AM,37.4,28.4,70,30.08,10.0,NNW,6.9,-,N/A,,Overcast,330,2013-10-23 14:53:00
10:14 AM,37.4,26.6,65,30.08,10.0,NNW,5.8,-,N/A,,Overcast,330,2013-10-23 15:14:00
10:33 AM,37.4,26.6,65,30.08,10.0,NNW,8.1,-,N/A,,Overcast,340,2013-10-23 15:33:00
10:53 AM,37.4,26.6,65,30.09,10.0,North,10.4,-,N/A,,Overcast,360,2013-10-23 15:53:00
11:14 AM,39.2,26.6,61,30.09,10.0,North,11.5,-,N/A,,Overcast,360,2013-10-23 16:14:00
11:33 AM,39.2,26.6,61,30.09,10.0,North,13.8,-,N/A,,Overcast,360,2013-10-23 16:33:00
11:53 AM,39.2,24.8,56,30.10,10.0,North,13.8,19.6,N/A,,Overcast,350,2013-10-23 16:53:00
12:14 PM,39.2,24.8,56,30.10,10.0,North,11.5,-,N/A,,Overcast,350,2013-10-23 17:14:00
12:33 PM,39.2,23.0,52,30.10,10.0,North,12.7,-,N/A,,Overcast,350,2013-10-23 17:33:00
12:54 PM,39.2,24.8,56,30.10,10.0,NNW,11.5,16.1,N/A,,Overcast,330,2013-10-23 17:54:00
1:14 PM,41.0,24.8,53,30.09,10.0,NNW,11.5,-,N/A,,Overcast,330,2013-10-23 18:14:00
1:34 PM,41.0,24.8,53,30.09,10.0,NNW,10.4,17.3,N/A,,Mostly Cloudy,340,2013-10-23 18:34:00
1:54 PM,42.8,26.6,53,30.09,10.0,NNW,12.7,21.9,N/A,,Mostly Cloudy,330,2013-10-23 18:54:00
2:13 PM,42.8,24.8,49,30.09,10.0,NNW,18.4,24.2,N/A,,Overcast,340,2013-10-23 19:13:00
2:34 PM,41.0,24.8,53,30.09,10.0,NNW,13.8,20.7,N/A,,Overcast,330,2013-10-23 19:34:00
2:54 PM,41.0,24.8,53,30.09,10.0,NNW,15.0,19.6,N/A,,Overcast,330,2013-10-23 19:54:00
3:13 PM,42.8,24.8,49,30.09,10.0,NNW,17.3,21.9,N/A,,Overcast,340,2013-10-23 20:13:00
3:34 PM,42.8,26.6,53,30.09,10.0,NNW,15.0,21.9,N/A,,Overcast,330,2013-10-23 20:34:00
3:54 PM,42.8,24.8,49,30.10,10.0,NNW,16.1,20.7,N/A,,Mostly Cloudy,340,2013-10-23 20:54:00
4:13 PM,42.8,24.8,49,30.10,10.0,NNW,16.1,-,N/A,,Overcast,330,2013-10-23 21:13:00
4:34 PM,42.8,24.8,49,30.10,10.0,NNW,11.5,17.3,N/A,,Overcast,330,2013-10-23 21:34:00
4:54 PM,42.8,24.8,49,30.10,10.0,North,12.7,-,N/A,,Overcast,350,2013-10-23 21:54:00
5:13 PM,42.8,24.8,49,30.11,10.0,North,12.7,18.4,N/A,,Overcast,350,2013-10-23 22:13:00
5:34 PM,42.8,24.8,49,30.11,10.0,North,11.5,-,N/A,,Overcast,350,2013-10-23 22:34:00
5:53 PM,42.8,26.6,53,30.11,10.0,NNW,8.1,-,N/A,,Overcast,340,2013-10-23 22:53:00
6:14 PM,42.8,26.6,53,30.11,10.0,NNW,9.2,-,N/A,,Overcast,330,2013-10-23 23:14:00
6:34 PM,41.0,26.6,57,30.12,10.0,NNW,6.9,-,N/A,,Overcast,330,2013-10-23 23:34:00
6:53 PM,41.0,26.6,57,30.12,10.0,NNW,8.1,-,N/A,,Overcast,340,2013-10-23 23:53:00
7:14 PM,41.0,26.6,57,30.12,10.0,NNW,11.5,-,N/A,,Overcast,340,2013-10-24 00:14:00
7:34 PM,39.2,26.6,61,30.13,10.0,NNW,9.2,-,N/A,,Overcast,330,2013-10-24 00:34:00
7:53 PM,39.2,26.6,61,30.13,10.0,NNW,8.1,-,N/A,,Overcast,330,2013-10-24 00:53:00
8:14 PM,39.2,26.6,61,30.14,10.0,NNW,8.1,-,N/A,,Overcast,330,2013-10-24 01:14:00
8:34 PM,39.2,26.6,61,30.14,10.0,NNW,9.2,-,N/A,,Overcast,330,2013-10-24 01:34:00
8:53 PM,39.2,26.6,61,30.14,10.0,NNW,11.5,-,N/A,,Overcast,330,2013-10-24 01:53:00
9:14 PM,39.2,28.4,65,30.15,10.0,NNW,15.0,23.0,N/A,,Overcast,330,2013-10-24 02:14:00
9:34 PM,39.2,30.2,70,30.15,10.0,NW,10.4,-,N/A,,Overcast,320,2013-10-24 02:34:00
9:53 PM,37.4,30.2,75,30.16,10.0,NW,8.1,-,N/A,,Mostly Cloudy,310,2013-10-24 02:53:00
10:14 PM,37.4,30.2,75,30.15,10.0,WNW,6.9,-,N/A,,Mostly Cloudy,290,2013-10-24 03:14:00
10:33 PM,35.6,32.0,87,30.17,10.0,NW,6.9,-,N/A,,Mostly Cloudy,310,2013-10-24 03:33:00
10:54 PM,35.6,33.8,93,30.17,10.0,NW,8.1,-,N/A,,Overcast,310,2013-10-24 03:54:00
11:14 PM,35.6,33.8,93,30.17,10.0,WNW,8.1,-,N/A,,Overcast,300,2013-10-24 04:14:00
11:34 PM,35.6,32.0,87,30.17,10.0,NW,9.2,-,N/A,,Overcast,310,2013-10-24 04:34:00
11:54 PM,37.4,33.8,87,30.17,10.0,NW,8.1,-,N/A,,Overcast,310,2013-10-24 04:54:00